Location: Caltech
(34.1382°N, 118.1253°W)
Time: 11:43:26
(UTC-07:00)

TMSAT-1 - Visible Passes

Search period start: 27 August 2016 00:00
Search period end: 06 September 2016 00:00
Orbit: 808 x 813 km, 98.5° (Epoch: 26 August)

Date Brightness Start Highest point End Pass type
(mag) Time Alt. Az. Time Alt. Az. Time Alt. Az.
27 Aug 10.5 03:12:46 10° N 03:15:38 33° N 03:15:38 33° N visible
28 Aug 11.0 02:49:17 10° NNE 02:51:40 26° NNE 02:51:40 26° NNE visible
28 Aug 11.0 04:30:52 10° NNW 04:32:49 15° NW 04:32:49 15° NW visible
29 Aug 11.5 02:26:06 10° NNE 02:27:43 18° NE 02:27:43 18° NE visible
29 Aug 10.7 04:06:16 10° NNW 04:08:52 22° NW 04:08:52 22° NW visible
30 Aug 11.9 02:03:23 10° NE 02:03:45 11° NE 02:03:45 11° NE visible
30 Aug 10.5 03:42:11 10° N 03:44:54 28° NNW 03:44:54 28° NNW visible
31 Aug 10.7 03:18:24 10° N 03:20:57 29° N 03:20:57 29° N visible
01 Sep 11.1 02:54:51 10° NNE 02:56:59 25° NNE 02:56:59 25° NNE visible
01 Sep 11.2 04:36:55 10° NW 04:38:08 12° NW 04:38:08 12° NW visible
02 Sep 11.5 02:31:35 10° NNE 02:33:02 18° NE 02:33:02 18° NE visible
02 Sep 10.9 04:12:04 10° NNW 04:14:10 18° NW 04:14:10 18° NW visible
03 Sep 12.0 02:08:43 10° NE 02:09:04 11° NE 02:09:04 11° NE visible
03 Sep 10.8 03:47:53 10° N 03:50:13 24° NNW 03:50:13 24° NNW visible
04 Sep 10.9 03:24:02 10° N 03:26:15 26° N 03:26:15 26° N visible
05 Sep 11.2 03:00:25 10° NNE 03:02:18 23° NNE 03:02:18 23° NNE visible
05 Sep 11.3 04:43:07 10° NW 04:43:27 11° NW 04:43:27 11° NW visible
